TSIOLKOVSKY-RYAZAN 1 (*) (53312 NORAD) Tracking and Keplerian Element Data

This shows tracking and keplerian element data for the satellite.

Feedback or suggestion? Click here.




ElementValue
Catalog53312
NameTSIOLKOVSKY-RYAZAN 1 (*)
Epoch Orbit1908
Epoch Day325.13998108
Epoch Year2022
RAAN273.3741
Inclination51.6365
Eccentricity0.0008918
Argument of Perigee109.2353
Mean Anonmoly250.9608
Mean Motion15.66339211
Decay Rate0.00112742
L11 53312U 98067TX 22325.13998108 .00112742 00000+0 10553-2 0 9999
L22 53312 51.6365 273.3741 0008918 109.2353 250.9608 15.66339211 19083



Live tracking and technical data element details for TSIOLKOVSKY-RYAZAN 1 (*) (NORAD 53312). TSIOLKOVSKY-RYAZAN 1 (*) can be tracked NOW for your location showing map with azimuth and elevation plus other details from your city location.







IsCatalogInMostPopularTable: catalog: 53312, numindb: 14
Update: records affected: 1



GetName: 53312 TSIOLKOVSKY-RYAZAN 1 (*)

Hit Count: updated at: Tue, 29 Nov 2022 00:21:12 GMT